Regional Weather Roundup
Issued by NWS Little Rock, AR

Home | Current Version | Previous Version | Graphics & Text | Print | Product List | Glossary On
Versions: 1 2 3 4 5 6 7 8 9 10 11 12 13 14 15 16 17 18 19 20 21 22 23 24 25 26 27 28 29 30 31 32 33 34 35 36 37 38 39 40 41 42 43 44 45 46 47 48 49 50
000
ASUS44 KLZK 211205
RWRLZK

WEATHER ROUNDUP FOR ARKANSAS
NATIONAL WEATHER SERVICE LITTLE ROCK AR
700 AM CDT SAT APR 21 2018

NOTE: "FAIR" INDICATES FEW OR NO CLOUDS BELOW 12,000 FEET WITH NO
SIGNIFICANT WEATHER AND/OR OBSTRUCTIONS TO VISIBILITY.

ARZ001-003-010-029-211300-
NORTHWEST ARKANSAS

CITY           SKY/WX    TMP DP  RH WIND       PRES   REMARKS
FAYETTEVILLE   PTCLDY    50  31  48 NE3       30.14R
6HR MIN TEMP:  44; 6HR MAX TEMP:  53; 6HR PCP: TRACE;

FORT SMITH     MOCLDY    52  35  52 E6        30.13S
6HR MIN TEMP:  49; 6HR MAX TEMP:  56; 6HR PCP: TRACE;

HARRISON       PTCLDY    46  30  53 E8        30.20F
6HR MIN TEMP:  43; 6HR MAX TEMP:  48;

BENTONVILLE    CLOUDY    50  30  46 E8        30.17R
6HR MIN TEMP:  50; 6HR MAX TEMP:  55; 6HR PCP: TRACE;

ROGERS         CLOUDY    50  29  44 E8        30.16S
6HR MIN TEMP:  48; 6HR MAX TEMP:  55; 6HR PCP: TRACE;

SILOAM SPGS    CLOUDY    50  32  50 E7        30.15R
6HR MIN TEMP:  49; 6HR MAX TEMP:  53; 6HR PCP: TRACE;

SPRINGDALE     MOCLDY    50  30  46 E6G12     30.15F
$$

ARZ004-005-016-211300-
NORTH CENTRAL ARKANSAS

CITY           SKY/WX    TMP DP  RH WIND       PRES   REMARKS
BATESVILLE     PTCLDY    41  36  82 CALM      30.25R
6HR MIN TEMP:  40; 6HR MAX TEMP:  52;

FLIPPIN        CLOUDY    45  33  63 CALM      30.25R
6HR MIN TEMP:  43; 6HR MAX TEMP:  50;

$$

ARZ040-041-211300-
WEST CENTRAL ARKANSAS

CITY           SKY/WX    TMP DP  RH WIND       PRES   REMARKS
MENA           NOT AVBL
MOUNT IDA      CLOUDY    46  45  96 CALM      30.14S
6HR MIN TEMP:  42; 6HR MAX TEMP:  46; 6HR PCP: TRACE;

$$

ARZ009-017-025-026-028-211300-
NORTHEAST ARKANSAS

CITY           SKY/WX    TMP DP  RH WIND       PRES   REMARKS
CORNING        FAIR      46  37  71 NE7       30.27R
JONESBORO      FAIR      48  37  65 NE6       30.25R
6HR MIN TEMP:  45; 6HR MAX TEMP:  52;

NEWPORT        FAIR      44  37  76 N6        30.25R
6HR MIN TEMP:  41; 6HR MAX TEMP:  50;

WALNUT RIDGE   FAIR      46  36  68 NE8       30.26R
6HR MIN TEMP:  44; 6HR MAX TEMP:  48;

BLYTHEVILLE    FAIR      47  35  63 E7        30.27R
6HR MIN TEMP:  45; 6HR MAX TEMP:  52;

$$

ARZ022-023-033-042-044-211300-
CENTRAL ARKANSAS

CITY           SKY/WX    TMP DP  RH WIND       PRES   REMARKS
LITTLE ROCK    CLOUDY    47  41  80 N5        30.20R
6HR MIN TEMP:  46; 6HR MAX TEMP:  52;

N LITTLE ROCK    N/A     48  39  72 E5        30.18R
6HR MIN TEMP:  47; 6HR MAX TEMP:  52;

JACKSONVILLE   CLOUDY    48  39  73 CALM      30.20R
6HR MIN TEMP:  44; 6HR MAX TEMP:  49;

CONWAY         SUNNY     46  41  81 CALM      30.20S
SEARCY         FAIR      48  39  71 NE6       30.23R
6HR MIN TEMP:  46; 6HR MAX TEMP:  52;

HOT SPRINGS    CLOUDY    48  45  89 CALM      30.17R
6HR MIN TEMP:  47; 6HR MAX TEMP:  52;

RUSSELLVILLE   CLOUDY    53  35  50 E5        30.18S
6HR MIN TEMP:  44; 6HR MAX TEMP:  53;

CLINTON        FAIR      37  36  93 CALM      30.24R
$$

ARZ036-211300-
EAST ARKANSAS

CITY           SKY/WX    TMP DP  RH WIND       PRES   REMARKS
WEST MEMPHIS   FAIR      51  36  56 E8        30.22R
6HR MIN TEMP:  48; 6HR MAX TEMP:  55;

$$

ARZ050-053-066-070-073-211300-
SOUTHWEST ARKANSAS

CITY           SKY/WX    TMP DP  RH WIND       PRES   REMARKS
ARKADELPHIA    FAIR      48  43  82 NE6       30.18R
6HR MIN TEMP:  43; 6HR MAX TEMP:  48;

CAMDEN         FAIR      46  43  87 CALM      30.16R
TEXARKANA      CLOUDY    47  43  86 E3        30.14R
6HR MIN TEMP:  44; 6HR MAX TEMP:  50;

EL DORADO      FAIR      49  47  93 CALM      30.16R
6HR MIN TEMP:  44; 6HR MAX TEMP:  49;

DE QUEEN       CLOUDY    50  42  74 E5        30.11S
6HR MIN TEMP:  43; 6HR MAX TEMP:  50;

$$

ARZ056-057-069-211300-
SOUTHEAST ARKANSAS

CITY           SKY/WX    TMP DP  RH WIND       PRES   REMARKS
PINE BLUFF     FAIR      49  44  83 CALM      30.19R
6HR MIN TEMP:  45; 6HR MAX TEMP:  53;

STUTTGART      FAIR      49  42  77 NE7       30.20
6HR MIN TEMP:  47; 6HR MAX TEMP:  53;

MONTICELLO     FAIR      45  42  89 CALM      30.17R
6HR MIN TEMP:  43; 6HR MAX TEMP:  48;


$$





USA.gov is the U.S. government's official web portal to all federal, state and local government web resources and services.